Showing default

YAOGAN-31 D, 47532

Orbit data source: Space-Track

YAOGAN-31 D, 47532 is a payload satellite owned by PLA SSF (CN) in LEO that was launched on Fri, 29 Jan 2021 UTC via a CHANG ZHENG 4C launch vehicle from the Jiuquan Satellite Launch Center, China (JSC). Payload-class satellites include a variety of spacecraft equipped with specific instruments for various scientific and technological missions. These include communications satellites like Starlink; space stations such as the ISS; scientific satellites like the Hubble; Earth observation satellites from companies like Planet Labs, Umbra, and HawkEye 360; GPS; miniature CubeSats for education and research; and military/defense satellites.

Loading next visibility...
Identifier
47532, 2021-007A
Orbit
LEO
Country
Flag of CNCN / PRC
Related business
Manufacturer
DFH
Mission
Operational Defense Sigint
Bus & Motor
JB-8B, Unknown motor
Mass
~500 kg wet, ~500 kg dry
Launch date (UTC)
2021-01-29 (5 years ago)
Launch vehicle
CHANG ZHENG 4C
Launch site
Jiuquan Satellite Launch Center, China (JSC)
Object type
Payload
Rocket body
Debris
Shape & HBR
Box + 2 Pan, 0.5 m
Radar Cross Section
0.446 m², Large (>1 m²)

Expand to show TLE details & history
Last TLE update: 22 hours ago

TLE from 22 hours ago
0 YAOGAN-31 D
1 47532U 21007A   26172.50402760 -.00000092  00000-0 -23842-5 0  9990
2 47532  63.4028 132.0241 0176446   0.5319 359.5863 13.45448735264819
Epoch: 2026-06-21T12:05Z
TLE epoch observation values (Epoch: 2026-06-21T12:05:47.984Z)
Latitude
-0.00005°
Longitude
40.87079°
Altitude
959.052 km
Speed
7.437 km/s
True Right ascension
08h 48m 05s
True Declination
0° 00' 00"
Sunlit
Object was in daylight at epoch
Visualization orbit readout
Latitude
Unknown
Longitude
Unknown
Altitude
Unknown
Speed
Unknown
Apparent Right ascension
Unknown
Apparent Declination
Unknown
Sunlit
N/A
Visualization observer readout
Local Sidereal Time
21:26:07
Azimuth
Unknown
Elevation
Unknown
Doppler factor
Unknown
Orbital elements
Apogee altitude
1,219.614 km
Perigee altitude
956.144 km
Semi-major axis
7,466.016 km
Eccentricity
0.01764
Inclination
63.4028°
RAAN
132.0241°
Arg. of periapsis
0.5319°
True anomaly
359.57137°
Mean anomaly
359.5863°
Eccentric anomaly
359.57887°
Mean motion
3.36442 °/min
Orbital period
107 mins
BSTAR
-0.0000023842
Loading maneuver chart data...
Computing Atmospheric mass density...
Loading historical data...
Loading historical data...
Loading historical data...
Loading historical data...
Loading historical data...
Loading historical data...
Loading historical data...
Other satellites on launch #7 in the year 2021 (2021-01-29 UTC)

Documentation

Showing up to 5 results
|